Temperature
11 11 11 10 10 10 10 9 9 9 9 9 9 9 8 8 8 8 8 8 7 7 7 7 7 7 6 5 5 4 4 4 3 3 3 3 3 2 2 3 3 2 2
11 11 11 10 10 10 9 9 9 8 8 8 9 9 8 8 8 8 8 7 7 7 7 7 7 6 6 5 4 4 4 3 3 3 2 2 2 2 2 1 2 2 2
11 11 10 10 10 9 9 9 8 8 8 8 8 8 8 8 8 7 7 7 7 7 7 6 6 6 6 5 4 4 3 3 2 2 2 1 1 1 1 1 1 1 1
11 10 10 10 10 9 9 8 8 8 8 8 8 8 8 7 7 7 7 7 7 7 6 6 6 6 5 5 4 4 3 3 2 2 1 1 1 1 0 0 0 0 0
10 10 10 10 9 9 8 8 8 8 8 8 8 7 7 7 7 7 7 7 7 7 6 6 6 6 5 5 4 4 3 2 2 1 1 1 0 0 0 0 -0 -0 0
10 9 9 9 9 8 8 8 8 8 8 7 7 7 7 7 7 7 7 7 7 7 6 6 6 5 5 5 4 4 3 2 1 1 1 0 -0 -0 -0 -0 -0 -0 -0
9 8 8 8 8 8 8 8 7 7 7 7 6 6 6 7 7 7 7 7 7 7 7 6 6 5 5 5 4 4 3 2 1 1 0 -0 -0 -0 -1 -1 -1 -0 -0
8 8 8 7 7 7 7 7 7 6 6 6 5 5 4 6 7 8 8 8 8 7 6 6 6 6 5 5 4 4 3 3 2 1 -0 -0 -1 -1 -1 -1 -1 -1 -0
8 8 7 7 7 6 6 6 6 6 6 5 5 4 4 4 6 6 7 7 7 7 6 6 6 5 5 4 4 3 3 2 2 1 -0 -0 -1 -1 -1 -1 -1 -1 -1
8 8 7 7 6 6 6 6 5 5 5 4 4 4 4 3 3 4 5 5 5 5 5 5 5 5 4 4 3 3 2 2 1 1 -0 -1 -1 -1 -1 -1 -1 -1 -1
8 8 7 7 6 6 6 5 5 5 4 4 4 3 3 2 2 1 1 3 3 3 3 3 3 3 3 3 3 2 2 1 1 0 -0 -1 -1 -1 -1 -1 -1 -1 -1
8 7 7 6 6 6 5 5 5 4 4 4 3 3 2 2 1 1 -0 0 1 2 2 2 2 2 2 2 2 2 1 1 0 -0 -1 -1 -2 -2 -2 -2 -2 -2 -2
8 7 7 6 6 6 5 5 4 4 4 4 3 3 2 2 2 1 -0 -0 -0 0 -0 0 0 1 1 1 1 1 0 -0 -0 -1 -1 -2 -2 -3 -3 -3 -3 -3 -3
8 7 7 6 6 5 5 4 4 4 4 3 3 3 2 2 1 0 -0 -1 -2 -2 -2 -1 -1 -1 -1 -0 -0 -0 -0 -1 -1 -1 -2 -2 -3 -3 -3 -3 -3 -3 -3
7 7 6 6 5 5 5 4 4 4 3 3 3 3 2 2 1 0 -1 -1 -3 -3 -3 -2 -2 -2 -2 -2 -1 -1 -1 -1 -2 -2 -2 -3 -3 -4 -4 -4 -4 -4 -4
7 7 6 6 5 5 5 4 4 3 3 3 3 2 2 2 1 0 -1 -2 -3 -3 -4 -3 -3 -3 -3 -3 -3 -3 -3 -2 -2 -3 -3 -3 -4 -4 -4 -4 -4 -5 -5
7 6 6 6 5 5 4 4 4 3 3 3 2 2 2 1 1 -0 -1 -2 -3 -4 -5 -4 -4 -4 -4 -4 -4 -4 -4 -3 -3 -3 -3 -3 -4 -4 -4 -5 -5 -5 -5
6 6 5 5 5 5 5 4 3 3 3 2 2 2 1 1 0 -0 -1 -2 -3 -4 -4 -5 -5 -5 -5 -5 -5 -5 -4 -4 -4 -3 -4 -4 -4 -4 -5 -5 -5 -5 -5
5 5 5 5 5 5 4 4 3 3 2 2 2 1 1 1 0 -0 -1 -2 -2 -3 -4 -5 -6 -6 -6 -6 -6 -5 -5 -5 -5 -4 -4 -4 -4 -5 -5 -5 -5 -5 -6
4 4 4 4 4 4 4 3 3 2 2 1 1 1 0 0 -0 -1 -1 -2 -3 -4 -5 -5 -6 -6 -7 -6 -7 -6 -6 -5 -5 -5 -5 -5 -5 -5 -5 -6 -6 -6 -6
4 3 3 3 3 3 3 3 2 2 1 1 1 0 -0 -1 -1 -2 -3 -3 -4 -5 -5 -6 -7 -7 -7 -7 -7 -6 -6 -6 -6 -5 -5 -5 -5 -5 -5 -5 -6 -6 -6
3 2 2 2 2 2 2 1 1 1 0 0 0 0 -0 -1 -2 -3 -4 -4 -5 -5 -6 -6 -7 -7 -7 -7 -7 -7 -7 -7 -7 -6 -6 -6 -6 -6 -6 -6 -6 -7 -7
2 1 1 1 1 1 1 1 0 -0 -1 -1 -1 -1 -1 -2 -2 -3 -3 -4 -4 -5 -5 -6 -6 -6 -7 -6 -7 -7 -7 -7 -7 -6 -7 -7 -7 -7 -6 -6 -7 -7 -7
1 0 0 0 0 0 0 -0 -1 -1 -1 -1 -1 -2 -2 -3 -3 -4 -4 -4 -5 -5 -5 -5 -6 -6 -6 -6 -6 -7 -7 -7 -7 -7 -7 -8 -7 -7 -7 -7 -7 -8 -8
-0 -0 -1 -1 -1 -1 -1 -1 -1 -1 -2 -2 -2 -2 -3 -3 -3 -4 -5 -5 -5 -5 -6 -6 -6 -6 -6 -6 -6 -7 -7 -7 -8 -7 -7 -8 -7 -7 -8 -8 -7 -8 -8
-1 -1 -1 -1 -1 -1 -1 -1 -2 -2 -3 -3 -3 -3 -3 -4 -4 -5 -5 -5 -6 -6 -6 -6 -6 -6 -6 -6 -6 -6 -7 -7 -8 -8 -7 -8 -8 -9 -9 -8 -8 -8 -8
Wind_Speed
14 15 15 16 17 16 15 14 13 13 13 13 14 13 13 13 13 12 12 11 10 9 8 8 7 7 7 6 6 6 7 7 8 8 9 10 11 11 12 13 14 15 15
18 15 14 15 17 18 18 17 15 13 12 12 13 14 15 15 15 15 15 14 13 13 12 11 10 10 9 9 9 8 8 9 9 10 10 11 11 12 13 14 14 15 15
21 18 15 14 17 19 18 16 15 13 10 10 9 14 14 16 16 17 18 17 17 16 15 14 13 13 12 11 11 11 10 11 11 11 12 12 12 13 13 14 15 15 16
24 20 15 15 19 18 16 11 8 6 7 7 7 8 12 13 16 18 19 19 19 18 18 17 17 16 15 14 13 13 13 13 13 13 13 14 14 14 15 15 16 16 17
26 22 18 17 18 15 13 11 8 7 8 8 8 7 7 9 13 16 17 20 21 21 21 20 19 19 18 17 16 15 15 15 15 15 15 15 16 16 16 17 17 17 18
25 23 18 16 17 10 9 8 9 8 7 7 8 9 8 8 11 13 16 19 20 22 22 21 21 19 20 19 18 17 17 17 17 17 17 17 17 18 18 18 18 19 19
24 23 16 14 14 11 13 12 9 9 9 4 4 6 6 10 14 13 15 15 18 21 21 21 21 21 20 20 20 19 18 18 18 18 19 19 19 19 19 19 20 20 20
23 23 18 11 12 11 12 12 11 8 7 7 6 3 6 6 9 14 13 13 13 16 18 21 21 21 20 20 20 21 20 20 20 20 21 21 21 21 21 21 21 21 21
23 23 21 17 13 13 14 15 14 13 11 9 8 6 5 8 4 4 8 11 11 10 12 17 20 22 22 20 21 23 22 22 22 22 22 22 23 23 23 23 23 23 23
20 23 21 20 15 14 16 16 15 14 13 12 8 10 9 5 4 5 4 5 9 11 11 12 16 20 22 21 22 23 24 23 23 23 24 24 24 25 25 25 24 24 24
16 20 21 18 16 16 17 16 15 16 15 16 12 7 11 11 10 8 11 6 4 7 9 10 11 15 20 21 22 24 26 25 25 25 25 26 26 26 26 26 26 25 25
11 15 17 17 17 17 18 18 17 18 18 18 16 12 9 8 9 11 17 15 9 6 8 10 10 13 19 20 23 26 27 26 26 26 26 27 27 27 28 27 27 27 27
11 13 15 16 17 17 16 16 17 19 19 18 19 17 16 16 8 8 13 14 10 6 6 7 11 14 18 19 21 27 27 27 27 27 27 27 27 28 28 28 28 29 29
13 12 14 16 18 17 17 17 17 18 17 20 21 19 17 16 13 13 10 10 12 9 9 10 6 11 17 19 22 27 23 27 28 27 27 27 28 28 29 29 30 30 30
11 12 13 15 16 17 18 17 17 19 18 19 19 19 18 15 13 13 12 11 13 16 15 9 8 8 14 18 23 21 20 26 28 27 28 28 29 29 30 30 31 31 31
11 11 12 13 15 15 16 17 17 17 18 18 15 17 19 15 13 12 13 12 14 16 18 6 9 7 9 13 21 21 21 26 28 28 28 29 29 30 30 31 31 31 32
10 11 12 12 13 14 14 15 17 16 18 18 17 18 20 16 15 13 12 13 14 14 20 13 7 8 10 10 11 14 17 17 19 27 29 30 30 30 31 31 31 32 33
10 10 11 11 13 13 13 15 17 17 17 19 18 18 19 16 18 15 14 15 15 15 17 19 9 8 12 10 10 10 11 16 17 25 29 30 30 30 31 31 32 32 32
10 10 10 11 12 13 13 14 16 16 17 18 17 18 18 17 18 15 16 16 14 15 15 16 14 9 10 9 10 11 13 10 15 22 26 28 29 30 31 31 31 32 32
10 11 11 11 12 12 12 13 13 14 15 16 16 17 17 18 18 17 16 16 14 14 13 14 14 10 10 7 7 11 12 10 12 14 19 22 25 28 30 31 31 32 32
10 10 11 11 11 10 11 12 12 13 14 15 15 15 16 20 24 20 15 12 12 13 13 14 14 12 11 9 10 10 13 10 10 11 12 12 13 13 16 26 29 31 32
10 10 11 12 12 11 18 22 17 12 13 14 15 14 15 20 25 30 31 28 22 17 16 16 15 15 12 12 11 11 11 11 10 7 10 12 10 12 11 12 25 31 32
10 11 11 11 12 15 22 23 23 14 11 12 13 13 12 14 20 14 22 29 27 31 28 19 18 17 15 13 12 14 14 13 14 8 7 12 10 13 11 17 28 31 32
10 11 12 12 12 15 22 23 23 15 11 11 12 13 13 13 14 14 13 14 15 16 19 16 16 16 15 12 13 15 14 14 12 11 10 14 12 13 13 10 26 30 32
11 11 11 12 13 15 21 23 22 9 9 11 11 11 13 13 20 24 16 14 14 14 21 27 25 21 24 26 20 13 13 12 13 11 9 9 11 12 12 12 17 29 32
12 11 11 11 13 13 19 22 22 8 9 9 8 9 17 17 20 22 15 13 15 13 11 12 16 19 17 18 24 16 11 12 10 9 7 7 7 6 8 8 10 11 15
Wind_Direction
199 205 211 213 212 208 206 211 220 227 232 235 234 230 227 227 228 230 234 243 248 252 259 265 268 272 276 280 286 292 298 305 310 315 318 321 322 323 323 323 324 325 326
202 203 210 213 214 212 212 214 218 223 230 233 234 233 232 232 234 235 237 242 249 251 255 259 261 263 266 270 274 279 286 292 297 302 305 308 310 312 313 313 314 315 316
205 205 209 214 216 216 216 217 222 225 230 232 235 235 234 235 236 238 239 240 243 249 253 254 256 258 260 263 268 272 278 283 287 291 294 297 300 302 304 305 306 307 307
209 208 212 216 215 213 211 212 213 216 227 227 232 235 235 235 238 239 238 238 239 241 246 251 252 254 256 259 263 268 272 276 280 283 286 289 292 295 297 298 300 301 301
211 211 216 217 211 209 212 217 213 209 221 228 234 239 238 239 240 241 238 238 236 237 238 244 249 250 252 256 260 264 269 272 276 278 281 284 287 289 291 293 294 295 296
212 213 217 215 207 208 215 216 219 214 219 222 240 250 243 241 241 240 240 239 237 235 235 235 240 246 249 251 255 260 265 269 272 275 278 280 283 285 287 288 290 291 292
210 212 219 212 208 216 220 216 218 221 227 194 230 275 268 245 243 240 238 237 236 233 231 230 231 234 240 247 251 256 261 266 270 273 275 277 279 281 283 284 286 287 288
213 215 217 216 211 218 222 217 212 221 221 189 191 223 289 292 244 237 232 232 233 230 230 230 228 228 230 234 242 251 257 262 267 270 273 275 277 278 280 281 283 284 286
216 219 220 220 216 216 225 222 214 216 226 211 198 187 213 248 298 259 234 232 228 225 229 230 228 229 228 229 235 245 252 259 264 269 271 273 274 276 277 278 280 282 284
219 220 222 221 221 221 226 224 219 218 219 227 215 221 224 199 236 295 264 237 230 228 226 227 229 228 227 226 231 240 247 254 259 264 268 271 273 274 276 277 279 281 284
223 223 223 223 225 226 227 225 221 218 220 227 222 211 228 236 231 247 272 270 258 237 228 225 227 228 227 226 229 237 246 252 257 262 266 269 271 273 275 277 279 281 284
231 227 225 226 228 229 229 227 225 223 224 226 227 221 212 216 218 224 247 257 253 236 226 224 225 228 229 228 230 238 244 249 254 258 263 266 269 272 274 276 278 280 282
241 234 229 231 232 232 231 228 227 228 227 227 228 230 229 232 219 215 237 254 256 241 230 230 225 226 230 229 231 240 244 248 252 257 261 264 266 269 271 273 275 277 279
249 240 232 234 235 234 233 229 231 231 231 231 233 231 234 234 226 225 228 239 260 259 235 235 226 223 228 228 231 239 242 247 252 255 258 262 266 268 269 271 272 274 275
256 246 238 239 239 236 234 232 234 233 232 233 234 233 235 236 231 230 226 221 238 262 265 221 216 217 222 226 234 237 235 244 250 254 258 262 264 266 267 268 270 272 273
260 256 249 245 244 241 238 235 238 236 234 235 233 233 235 236 234 229 228 227 226 242 261 233 212 201 211 224 233 233 232 243 249 254 258 262 264 265 267 268 269 270 271
267 262 257 252 249 247 242 239 240 237 237 238 234 234 236 232 234 231 228 228 230 231 251 255 210 206 207 221 238 235 234 240 247 254 260 263 264 264 265 266 267 268 269
272 267 264 260 256 252 245 241 243 241 239 240 237 236 238 234 234 232 230 231 231 229 240 254 236 213 219 221 228 235 242 244 243 253 258 261 262 263 264 265 265 267 269
279 276 269 264 261 257 251 246 244 244 241 240 238 236 238 233 236 233 230 232 231 232 233 245 247 226 227 226 230 240 243 243 247 253 258 260 261 262 264 265 266 267 269
280 279 275 269 264 260 256 253 248 247 245 243 240 238 237 233 235 233 233 232 230 231 231 238 245 236 232 221 224 239 248 242 246 250 254 256 259 261 263 265 267 269 271
280 277 279 278 272 266 261 256 251 249 248 248 245 242 239 239 238 238 237 232 226 230 231 236 242 240 234 226 228 230 243 248 248 244 250 253 255 256 259 263 267 270 271
282 280 277 277 276 275 277 279 272 249 243 244 247 245 243 249 251 251 249 242 229 225 228 231 236 236 232 227 229 231 237 244 254 228 237 250 243 250 249 246 259 265 268
283 281 278 276 274 276 285 287 284 276 250 243 243 244 246 243 247 241 249 252 250 242 232 225 232 232 229 224 224 232 234 237 245 237 235 260 251 255 253 256 264 267 270
282 281 280 278 276 279 288 291 290 283 265 250 242 238 240 240 237 237 234 238 242 246 246 240 232 231 229 225 220 229 236 244 252 250 240 259 259 260 261 253 265 269 272
286 282 280 279 279 282 288 292 291 276 266 259 248 240 241 240 247 250 242 235 238 240 247 246 245 241 235 232 227 227 233 241 253 250 226 241 260 266 267 265 264 269 271
287 286 283 279 277 278 286 292 292 275 267 266 256 245 254 254 251 252 244 234 237 236 228 240 248 253 252 249 245 233 229 242 256 261 229 225 250 264 276 257 251 255 262
Height
1550 1551 1552 1553 1554 1554 1554 1554 1554 1554 1554 1554 1553 1553 1553 1553 1552 1552 1551 1550 1550 1549 1548 1547 1546 1545 1543 1542 1541 1540 1539 1538 1538 1537 1536 1535 1534 1533 1532 1531 1531 1529 1529
1546 1547 1548 1549 1550 1551 1551 1551 1551 1551 1551 1550 1550 1550 1549 1549 1548 1548 1547 1547 1546 1545 1544 1543 1542 1541 1540 1539 1538 1537 1536 1535 1534 1533 1532 1532 1531 1530 1529 1528 1527 1527 1526
1541 1543 1543 1544 1546 1547 1547 1547 1547 1547 1546 1546 1546 1546 1545 1544 1544 1543 1543 1542 1542 1541 1540 1539 1538 1537 1536 1535 1535 1534 1532 1531 1530 1530 1529 1528 1527 1526 1525 1525 1524 1523 1523
1536 1537 1538 1539 1541 1542 1542 1542 1543 1542 1541 1541 1541 1541 1540 1539 1538 1538 1537 1536 1536 1536 1535 1534 1533 1532 1532 1531 1530 1529 1528 1527 1526 1525 1525 1524 1523 1522 1521 1521 1520 1519 1519
1530 1531 1532 1534 1536 1536 1536 1537 1536 1536 1536 1536 1536 1535 1534 1532 1532 1531 1530 1530 1529 1529 1529 1528 1528 1527 1526 1526 1525 1524 1523 1522 1521 1521 1520 1519 1518 1518 1517 1516 1516 1515 1514
1523 1524 1525 1527 1529 1529 1529 1530 1529 1530 1530 1530 1529 1527 1525 1524 1523 1522 1522 1522 1522 1522 1522 1522 1521 1521 1520 1520 1519 1518 1517 1517 1516 1515 1515 1514 1513 1513 1512 1511 1511 1510 1510
1515 1516 1518 1519 1520 1521 1521 1522 1523 1522 1522 1523 1522 1518 1516 1515 1513 1512 1513 1513 1513 1514 1514 1514 1514 1514 1513 1513 1512 1512 1511 1510 1510 1509 1509 1508 1508 1507 1506 1506 1505 1505 1505
1507 1508 1509 1510 1511 1512 1513 1513 1514 1514 1514 1515 1514 1512 1508 1504 1500 1502 1502 1502 1502 1504 1504 1505 1506 1506 1506 1506 1505 1505 1504 1503 1503 1503 1502 1502 1501 1501 1500 1500 1500 1499 1499
1500 1500 1500 1501 1502 1502 1502 1503 1504 1505 1504 1505 1505 1506 1503 1496 1494 1491 1490 1491 1492 1494 1495 1496 1497 1498 1498 1498 1498 1498 1497 1496 1496 1495 1495 1495 1494 1494 1494 1494 1493 1493 1493
1492 1492 1492 1492 1492 1492 1491 1492 1493 1493 1494 1493 1493 1493 1493 1492 1491 1484 1481 1482 1483 1483 1485 1487 1488 1489 1490 1490 1490 1490 1490 1489 1488 1488 1487 1487 1487 1487 1487 1487 1486 1486 1486
1484 1483 1483 1482 1482 1481 1480 1481 1482 1482 1481 1481 1481 1481 1481 1481 1480 1479 1472 1471 1472 1473 1475 1478 1479 1480 1481 1481 1481 1482 1481 1481 1480 1480 1479 1479 1479 1479 1479 1479 1479 1478 1478
1475 1474 1474 1473 1472 1471 1470 1470 1470 1470 1470 1469 1469 1469 1469 1468 1467 1467 1465 1461 1461 1462 1465 1467 1468 1470 1472 1472 1472 1473 1473 1472 1472 1471 1471 1471 1471 1471 1471 1471 1470 1470 1469
1466 1465 1465 1463 1462 1461 1460 1460 1459 1457 1458 1457 1456 1456 1456 1454 1457 1457 1457 1453 1451 1450 1452 1452 1455 1458 1461 1462 1463 1464 1463 1463 1463 1462 1462 1462 1462 1462 1462 1462 1461 1461 1461
1458 1457 1456 1453 1452 1451 1450 1449 1447 1446 1446 1444 1444 1444 1444 1443 1444 1444 1445 1447 1443 1439 1438 1437 1441 1445 1449 1451 1453 1454 1453 1453 1453 1453 1453 1453 1453 1452 1452 1452 1452 1451 1451
1452 1449 1447 1444 1442 1441 1439 1438 1436 1434 1434 1432 1432 1432 1432 1431 1433 1433 1434 1436 1437 1432 1424 1426 1429 1432 1437 1440 1442 1442 1442 1443 1444 1443 1443 1443 1443 1442 1442 1442 1442 1442 1441
1445 1442 1439 1436 1433 1431 1429 1428 1425 1423 1422 1420 1420 1420 1419 1420 1421 1422 1423 1424 1424 1423 1416 1412 1417 1421 1425 1428 1431 1431 1432 1433 1433 1433 1433 1433 1432 1432 1432 1432 1432 1431 1431
1438 1434 1430 1427 1424 1421 1419 1417 1414 1413 1411 1409 1409 1408 1407 1409 1409 1410 1411 1411 1412 1412 1406 1402 1408 1410 1413 1416 1419 1420 1421 1421 1421 1422 1422 1422 1422 1421 1421 1421 1421 1421 1421
1430 1426 1422 1418 1415 1412 1409 1406 1403 1402 1400 1398 1397 1397 1396 1398 1397 1398 1399 1398 1399 1399 1398 1393 1396 1399 1401 1404 1407 1408 1409 1410 1410 1411 1411 1411 1410 1410 1410 1410 1410 1410 1410
1422 1418 1413 1409 1405 1402 1398 1395 1392 1390 1388 1386 1386 1385 1384 1386 1384 1385 1386 1385 1386 1387 1387 1385 1384 1388 1390 1393 1394 1395 1397 1397 1398 1399 1399 1399 1399 1399 1399 1399 1399 1399 1398
1414 1409 1404 1400 1396 1392 1388 1385 1381 1378 1376 1374 1373 1373 1372 1372 1372 1373 1373 1373 1374 1375 1375 1375 1374 1377 1379 1381 1383 1383 1384 1386 1386 1388 1387 1387 1387 1387 1387 1388 1388 1387 1386
1405 1400 1395 1390 1386 1382 1378 1374 1371 1367 1365 1363 1361 1361 1360 1360 1360 1360 1360 1360 1362 1362 1363 1364 1364 1366 1368 1370 1371 1372 1373 1374 1374 1376 1375 1375 1376 1375 1375 1375 1374 1373 1372
1396 1391 1386 1381 1377 1373 1369 1365 1361 1357 1354 1352 1350 1349 1348 1349 1348 1349 1350 1350 1350 1350 1351 1352 1352 1354 1356 1359 1362 1363 1364 1364 1363 1365 1365 1363 1364 1362 1361 1361 1361 1360 1358
1387 1382 1377 1372 1367 1363 1360 1356 1352 1348 1344 1342 1340 1338 1337 1336 1337 1336 1337 1339 1340 1340 1340 1340 1340 1341 1345 1349 1352 1354 1354 1353 1353 1355 1355 1351 1352 1350 1349 1349 1349 1347 1345
1378 1372 1367 1363 1358 1354 1351 1346 1343 1339 1335 1332 1330 1329 1327 1326 1326 1326 1325 1325 1326 1328 1330 1331 1330 1332 1336 1339 1342 1344 1345 1345 1344 1344 1345 1342 1340 1339 1338 1336 1335 1334 1332
1368 1363 1358 1354 1349 1344 1342 1338 1334 1329 1325 1323 1321 1319 1318 1316 1316 1316 1315 1314 1314 1315 1318 1321 1323 1325 1327 1330 1332 1334 1335 1335 1333 1333 1334 1332 1329 1328 1325 1322 1321 1320 1318
1359 1354 1349 1345 1341 1336 1332 1329 1325 1320 1316 1313 1311 1309 1309 1307 1306 1306 1306 1305 1305 1305 1308 1310 1313 1315 1318 1321 1324 1325 1325 1326 1325 1323 1323 1323 1320 1318 1311 1306 1306 1304 1302